Year,Month,Day,Hour,Minute,Value (Times are PST for temperature in C)
2015,06,20,00,00,13.70
2015,06,20,00,01,13.70
2015,06,20,00,02,13.70
2015,06,20,00,03,13.70
2015,06,20,00,04,13.70
2015,06,20,00,05,13.70
2015,06,20,00,06,13.70
2015,06,20,00,07,13.70
2015,06,20,00,08,13.70
2015,06,20,00,09,13.70
2015,06,20,00,10,13.70
2015,06,20,00,11,13.70
2015,06,20,00,12,13.70
2015,06,20,00,13,13.70
2015,06,20,00,14,13.70
2015,06,20,00,15,13.60
2015,06,20,00,16,13.60
2015,06,20,00,17,13.60
2015,06,20,00,18,13.60
2015,06,20,00,19,13.60
2015,06,20,00,20,13.60
2015,06,20,00,21,13.60
2015,06,20,00,22,13.60
2015,06,20,00,23,13.60
2015,06,20,00,24,13.60
2015,06,20,00,25,13.60
2015,06,20,00,26,13.60
2015,06,20,00,27,13.60
2015,06,20,00,28,13.60
2015,06,20,00,29,13.50
2015,06,20,00,30,13.50
2015,06,20,00,31,13.50
2015,06,20,00,32,13.50
2015,06,20,00,33,13.50
2015,06,20,00,34,13.50
2015,06,20,00,35,13.50
2015,06,20,00,36,13.50
2015,06,20,00,37,13.50
2015,06,20,00,38,13.50
2015,06,20,00,39,13.40
2015,06,20,00,40,13.40
2015,06,20,00,41,13.40
2015,06,20,00,42,13.40
2015,06,20,00,43,13.40
2015,06,20,00,44,13.40
2015,06,20,00,45,13.40
2015,06,20,00,46,13.40
2015,06,20,00,47,13.40
2015,06,20,00,48,13.40
2015,06,20,00,49,13.40
2015,06,20,00,50,13.40
2015,06,20,00,51,13.40
2015,06,20,00,52,13.40
2015,06,20,00,53,13.40
2015,06,20,00,54,13.40
2015,06,20,00,55,13.40
2015,06,20,00,56,13.40
2015,06,20,00,57,13.40
2015,06,20,00,58,13.40
2015,06,20,00,59,13.40
2015,06,20,01,00,13.40
2015,06,20,01,01,13.40
2015,06,20,01,02,13.30
2015,06,20,01,03,13.30
2015,06,20,01,04,13.30
2015,06,20,01,05,13.30
2015,06,20,01,06,13.30
2015,06,20,01,07,13.30
2015,06,20,01,08,13.40
2015,06,20,01,09,13.40
2015,06,20,01,10,13.40
2015,06,20,01,11,13.30
2015,06,20,01,12,13.40
2015,06,20,01,13,13.40
2015,06,20,01,14,13.30
2015,06,20,01,15,13.30
2015,06,20,01,16,13.30
2015,06,20,01,17,13.30
2015,06,20,01,18,13.40
2015,06,20,01,19,13.30
2015,06,20,01,20,13.30
2015,06,20,01,21,13.30
2015,06,20,01,22,13.30
2015,06,20,01,23,13.30
2015,06,20,01,24,13.30
2015,06,20,01,25,13.30
2015,06,20,01,26,13.30
2015,06,20,01,27,13.30
2015,06,20,01,28,13.30
2015,06,20,01,29,13.30
2015,06,20,01,30,13.30
2015,06,20,01,31,13.30
2015,06,20,01,32,13.30
2015,06,20,01,33,13.20
2015,06,20,01,34,13.20
2015,06,20,01,35,13.20
2015,06,20,01,36,13.20
2015,06,20,01,37,13.20
2015,06,20,01,38,13.20
2015,06,20,01,39,13.20
2015,06,20,01,40,13.20
2015,06,20,01,41,13.20
2015,06,20,01,42,13.20
2015,06,20,01,43,13.20
2015,06,20,01,44,13.20
2015,06,20,01,45,13.30
2015,06,20,01,46,13.20
2015,06,20,01,47,13.30
2015,06,20,01,48,13.30
2015,06,20,01,49,13.30
2015,06,20,01,50,13.20
2015,06,20,01,51,13.20
2015,06,20,01,52,13.20
2015,06,20,01,53,13.20
2015,06,20,01,54,13.20
2015,06,20,01,55,13.20
2015,06,20,01,56,13.20
2015,06,20,01,57,13.20
2015,06,20,01,58,13.20
2015,06,20,01,59,13.20
2015,06,20,02,00,13.20
2015,06,20,02,01,13.20
2015,06,20,02,02,13.20
2015,06,20,02,03,13.20
2015,06,20,02,04,13.20
2015,06,20,02,05,13.20
2015,06,20,02,06,13.20
2015,06,20,02,07,13.20
2015,06,20,02,08,13.20
2015,06,20,02,09,13.20
2015,06,20,02,10,13.20
2015,06,20,02,11,13.20
2015,06,20,02,12,13.20
2015,06,20,02,13,13.20
2015,06,20,02,14,13.20
2015,06,20,02,15,13.20
2015,06,20,02,16,13.20
2015,06,20,02,17,13.20
2015,06,20,02,18,13.20
2015,06,20,02,19,13.20
2015,06,20,02,20,13.20
2015,06,20,02,21,13.20
2015,06,20,02,22,13.20
2015,06,20,02,23,13.20
2015,06,20,02,24,13.20
2015,06,20,02,25,13.20
2015,06,20,02,26,13.20
2015,06,20,02,27,13.20
2015,06,20,02,28,13.20
2015,06,20,02,29,13.20
2015,06,20,02,30,13.20
2015,06,20,02,31,13.20
2015,06,20,02,32,13.20
2015,06,20,02,33,13.20
2015,06,20,02,34,13.20
2015,06,20,02,35,13.20
2015,06,20,02,36,13.20
2015,06,20,02,37,13.20
2015,06,20,02,38,13.20
2015,06,20,02,39,13.20
2015,06,20,02,40,13.20
2015,06,20,02,41,13.20
2015,06,20,02,42,13.20
2015,06,20,02,43,13.20
2015,06,20,02,44,13.20
2015,06,20,02,45,13.20
2015,06,20,02,46,13.20
2015,06,20,02,47,13.20
2015,06,20,02,48,13.20
2015,06,20,02,49,13.20
2015,06,20,02,50,13.20
2015,06,20,02,51,13.20
2015,06,20,02,52,13.20
2015,06,20,02,53,13.20
2015,06,20,02,54,13.20
2015,06,20,02,55,13.20
2015,06,20,02,56,13.20
2015,06,20,02,57,13.20
2015,06,20,02,58,13.20
2015,06,20,02,59,13.20
2015,06,20,03,00,13.20
2015,06,20,03,01,13.10
2015,06,20,03,02,13.10
2015,06,20,03,03,13.10
2015,06,20,03,04,13.10
2015,06,20,03,05,13.10
2015,06,20,03,06,13.10
2015,06,20,03,07,13.10
2015,06,20,03,08,13.10
2015,06,20,03,09,13.10
2015,06,20,03,10,13.00
2015,06,20,03,11,13.00
2015,06,20,03,12,13.00
2015,06,20,03,13,13.00
2015,06,20,03,14,12.90
2015,06,20,03,15,12.90
2015,06,20,03,16,12.90
2015,06,20,03,17,12.90
2015,06,20,03,18,12.90
2015,06,20,03,19,12.90
2015,06,20,03,20,12.90
2015,06,20,03,21,12.90
2015,06,20,03,22,12.80
2015,06,20,03,23,12.80
2015,06,20,03,24,12.80
2015,06,20,03,25,12.80
2015,06,20,03,26,12.70
2015,06,20,03,27,12.70
2015,06,20,03,28,12.70
2015,06,20,03,29,12.70
2015,06,20,03,30,12.70
2015,06,20,03,31,12.70
2015,06,20,03,32,12.70
2015,06,20,03,33,12.70
2015,06,20,03,34,12.60
2015,06,20,03,35,12.60
2015,06,20,03,36,12.60
2015,06,20,03,37,12.60
2015,06,20,03,38,12.60
2015,06,20,03,39,12.50
2015,06,20,03,40,12.50
2015,06,20,03,41,12.50
2015,06,20,03,42,12.40
2015,06,20,03,43,12.40
2015,06,20,03,44,12.40
2015,06,20,03,45,12.40
2015,06,20,03,46,12.40
2015,06,20,03,47,12.40
2015,06,20,03,48,12.40
2015,06,20,03,49,12.40
2015,06,20,03,50,12.40
2015,06,20,03,51,12.40
2015,06,20,03,52,12.30
2015,06,20,03,53,12.30
2015,06,20,03,54,12.30
2015,06,20,03,55,12.30
2015,06,20,03,56,12.30
2015,06,20,03,57,12.30
2015,06,20,03,58,12.30
2015,06,20,03,59,12.30
2015,06,20,04,00,12.20
2015,06,20,04,01,12.20
2015,06,20,04,02,12.20
2015,06,20,04,03,12.20
2015,06,20,04,04,12.20
2015,06,20,04,05,12.20
2015,06,20,04,06,12.20
2015,06,20,04,07,12.10
2015,06,20,04,08,12.10
2015,06,20,04,09,12.10
2015,06,20,04,10,12.10
2015,06,20,04,11,12.10
2015,06,20,04,12,12.10
2015,06,20,04,13,12.00
2015,06,20,04,14,12.00
2015,06,20,04,15,12.00
2015,06,20,04,16,12.10
2015,06,20,04,17,12.10
2015,06,20,04,18,12.10
2015,06,20,04,19,12.10
2015,06,20,04,20,12.00
2015,06,20,04,21,12.00
2015,06,20,04,22,12.00
2015,06,20,04,23,12.00
2015,06,20,04,24,12.00
2015,06,20,04,25,11.90
2015,06,20,04,26,11.90
2015,06,20,04,27,11.90
2015,06,20,04,28,12.00
2015,06,20,04,29,12.00
2015,06,20,04,30,12.00
2015,06,20,04,31,12.00
2015,06,20,04,32,12.00
2015,06,20,04,33,12.00
2015,06,20,04,34,12.00
2015,06,20,04,35,12.00
2015,06,20,04,36,12.00
2015,06,20,04,37,12.00
2015,06,20,04,38,12.00
2015,06,20,04,39,12.00
2015,06,20,04,40,12.00
2015,06,20,04,41,12.00
2015,06,20,04,42,12.00
2015,06,20,04,43,12.00
2015,06,20,04,44,12.00
2015,06,20,04,45,11.90
2015,06,20,04,46,11.90
2015,06,20,04,47,11.90
2015,06,20,04,48,11.90
2015,06,20,04,49,11.90
2015,06,20,04,50,11.80
2015,06,20,04,51,11.80
2015,06,20,04,52,11.80
2015,06,20,04,53,11.80
2015,06,20,04,54,11.80
2015,06,20,04,55,11.80
2015,06,20,04,56,11.80
2015,06,20,04,57,11.80
2015,06,20,04,58,11.80
2015,06,20,04,59,11.80
2015,06,20,05,00,11.80
2015,06,20,05,01,11.80
2015,06,20,05,02,11.80
2015,06,20,05,03,11.70
2015,06,20,05,04,11.70
2015,06,20,05,05,11.70
2015,06,20,05,06,11.70
2015,06,20,05,07,11.70
2015,06,20,05,08,11.70
2015,06,20,05,09,11.70
2015,06,20,05,10,11.70
2015,06,20,05,11,11.70
2015,06,20,05,12,11.70
2015,06,20,05,13,11.60
2015,06,20,05,14,11.60
2015,06,20,05,15,11.60
2015,06,20,05,16,11.60
2015,06,20,05,17,11.60
2015,06,20,05,18,11.60
2015,06,20,05,19,11.60
2015,06,20,05,20,11.60
2015,06,20,05,21,11.60
2015,06,20,05,22,11.70
2015,06,20,05,23,11.70
2015,06,20,05,24,11.70
2015,06,20,05,25,11.70
2015,06,20,05,26,11.70
2015,06,20,05,27,11.70
2015,06,20,05,28,11.70
2015,06,20,05,29,11.70
2015,06,20,05,30,11.70
2015,06,20,05,31,11.70
2015,06,20,05,32,11.70
2015,06,20,05,33,11.70
2015,06,20,05,34,11.70
2015,06,20,05,35,11.70
2015,06,20,05,36,11.70
2015,06,20,05,37,11.70
2015,06,20,05,38,11.70
2015,06,20,05,39,11.70
2015,06,20,05,40,11.70
2015,06,20,05,41,11.80
2015,06,20,05,42,11.80
2015,06,20,05,43,11.80
2015,06,20,05,44,11.80
2015,06,20,05,45,11.80
2015,06,20,05,46,11.80
2015,06,20,05,47,11.80
2015,06,20,05,48,11.80
2015,06,20,05,49,11.80
2015,06,20,05,50,11.80
2015,06,20,05,51,11.80
2015,06,20,05,52,11.80
2015,06,20,05,53,11.80
2015,06,20,05,54,11.80
2015,06,20,05,55,11.80
2015,06,20,05,56,11.80
2015,06,20,05,57,11.80
2015,06,20,05,58,11.80
2015,06,20,05,59,11.80
2015,06,20,06,00,11.80
2015,06,20,06,01,11.80
2015,06,20,06,02,11.80
2015,06,20,06,03,11.80
2015,06,20,06,04,11.80
2015,06,20,06,05,11.80
2015,06,20,06,06,11.80
2015,06,20,06,07,11.90
2015,06,20,06,08,11.90
2015,06,20,06,09,11.90
2015,06,20,06,10,11.90
2015,06,20,06,11,11.90
2015,06,20,06,12,11.90
2015,06,20,06,13,11.90
2015,06,20,06,14,11.90
2015,06,20,06,15,11.90
2015,06,20,06,16,12.00
2015,06,20,06,17,12.00
2015,06,20,06,18,12.00
2015,06,20,06,19,12.00
2015,06,20,06,20,12.00
2015,06,20,06,21,12.00
2015,06,20,06,22,12.00
2015,06,20,06,23,12.10
2015,06,20,06,24,12.10
2015,06,20,06,25,12.10
2015,06,20,06,26,12.10
2015,06,20,06,27,12.10
2015,06,20,06,28,12.10
2015,06,20,06,29,12.10
2015,06,20,06,30,12.10
2015,06,20,06,31,12.10
2015,06,20,06,32,12.10
2015,06,20,06,33,12.10
2015,06,20,06,34,12.10
2015,06,20,06,35,12.20
2015,06,20,06,36,12.20
2015,06,20,06,37,12.20
2015,06,20,06,38,12.20
2015,06,20,06,39,12.20
2015,06,20,06,40,12.20
2015,06,20,06,41,12.30
2015,06,20,06,42,12.30
2015,06,20,06,43,12.30
2015,06,20,06,44,12.30
2015,06,20,06,45,12.30
2015,06,20,06,46,12.30
2015,06,20,06,47,12.30
2015,06,20,06,48,12.30
2015,06,20,06,49,12.30
2015,06,20,06,50,12.30
2015,06,20,06,51,12.30
2015,06,20,06,52,12.30
2015,06,20,06,53,12.30
2015,06,20,06,54,12.30
2015,06,20,06,55,12.30
2015,06,20,06,56,12.30
2015,06,20,06,57,12.30
2015,06,20,06,58,12.30
2015,06,20,06,59,12.30
2015,06,20,07,00,12.30
2015,06,20,07,01,12.30
2015,06,20,07,02,12.30
2015,06,20,07,03,12.30
2015,06,20,07,04,12.30
2015,06,20,07,05,12.30
2015,06,20,07,06,12.30
2015,06,20,07,07,12.30
2015,06,20,07,08,12.30
2015,06,20,07,09,12.30
2015,06,20,07,10,12.30
2015,06,20,07,11,12.30
2015,06,20,07,12,12.30
2015,06,20,07,13,12.30
2015,06,20,07,14,12.30
2015,06,20,07,15,12.30
2015,06,20,07,16,12.30
2015,06,20,07,17,12.30
2015,06,20,07,18,12.30
2015,06,20,07,19,12.30
2015,06,20,07,20,12.40
2015,06,20,07,21,12.40
2015,06,20,07,22,12.40
2015,06,20,07,23,12.40
2015,06,20,07,24,12.40
2015,06,20,07,25,12.40
2015,06,20,07,26,12.40
2015,06,20,07,27,12.40
2015,06,20,07,28,12.40
2015,06,20,07,29,12.40
2015,06,20,07,30,12.40
2015,06,20,07,31,12.40
2015,06,20,07,32,12.40
2015,06,20,07,33,12.40
2015,06,20,07,34,12.50
2015,06,20,07,35,12.50
2015,06,20,07,36,12.50
2015,06,20,07,37,12.50
2015,06,20,07,38,12.50
2015,06,20,07,39,12.50
2015,06,20,07,40,12.50
2015,06,20,07,41,12.50
2015,06,20,07,42,12.50
2015,06,20,07,43,12.50
2015,06,20,07,44,12.60
2015,06,20,07,45,12.60
2015,06,20,07,46,12.60
2015,06,20,07,47,12.60
2015,06,20,07,48,12.60
2015,06,20,07,49,12.60
2015,06,20,07,50,12.60
2015,06,20,07,51,12.60
2015,06,20,07,52,12.60
2015,06,20,07,53,12.60
2015,06,20,07,54,12.60
2015,06,20,07,55,12.60
2015,06,20,07,56,12.60
2015,06,20,07,57,12.60
2015,06,20,07,58,12.60
2015,06,20,07,59,12.60
2015,06,20,08,00,12.60
2015,06,20,08,01,12.70
2015,06,20,08,02,12.70
2015,06,20,08,03,12.70
2015,06,20,08,04,12.70
2015,06,20,08,05,12.70
2015,06,20,08,06,12.70
2015,06,20,08,07,12.80
2015,06,20,08,08,12.80
2015,06,20,08,09,12.80
2015,06,20,08,10,12.80
2015,06,20,08,11,12.90
2015,06,20,08,12,12.90
2015,06,20,08,13,12.90
2015,06,20,08,14,12.90
2015,06,20,08,15,13.00
2015,06,20,08,16,13.00
2015,06,20,08,17,13.00
2015,06,20,08,18,13.00
2015,06,20,08,19,13.10
2015,06,20,08,20,13.10
2015,06,20,08,21,13.10
2015,06,20,08,22,13.10
2015,06,20,08,23,13.10
2015,06,20,08,24,13.10
2015,06,20,08,25,13.10
2015,06,20,08,26,13.20
2015,06,20,08,27,13.20
2015,06,20,08,28,13.20
2015,06,20,08,29,13.20
2015,06,20,08,30,13.20
2015,06,20,08,31,13.30
2015,06,20,08,32,13.30
2015,06,20,08,33,13.30
2015,06,20,08,34,13.30
2015,06,20,08,35,13.40
2015,06,20,08,36,13.40
2015,06,20,08,37,13.40
2015,06,20,08,38,13.40
2015,06,20,08,39,13.50
2015,06,20,08,40,13.50
2015,06,20,08,41,13.50
2015,06,20,08,42,13.50
2015,06,20,08,43,13.50
2015,06,20,08,44,13.60
2015,06,20,08,45,13.60
2015,06,20,08,46,13.60
2015,06,20,08,47,13.60
2015,06,20,08,48,13.70
2015,06,20,08,49,13.70
2015,06,20,08,50,13.70
2015,06,20,08,51,13.70
2015,06,20,08,52,13.80
2015,06,20,08,53,13.80
2015,06,20,08,54,13.80
2015,06,20,08,55,13.90
2015,06,20,08,56,13.90
2015,06,20,08,57,13.90
2015,06,20,08,58,13.90
2015,06,20,08,59,14.00
2015,06,20,09,00,14.00
2015,06,20,09,01,14.00
2015,06,20,09,02,14.00
2015,06,20,09,03,14.10
2015,06,20,09,04,14.10
2015,06,20,09,05,14.10
2015,06,20,09,06,14.10
2015,06,20,09,07,14.10
2015,06,20,09,08,14.10
2015,06,20,09,09,14.10
2015,06,20,09,10,14.10
2015,06,20,09,11,14.10
2015,06,20,09,12,14.10
2015,06,20,09,13,14.00
2015,06,20,09,14,14.00
2015,06,20,09,15,14.00
2015,06,20,09,16,14.00
2015,06,20,09,17,14.00
2015,06,20,09,18,14.10
2015,06,20,09,19,14.10
2015,06,20,09,20,14.10
2015,06,20,09,21,14.10
2015,06,20,09,22,14.20
2015,06,20,09,23,14.20
2015,06,20,09,24,14.20
2015,06,20,09,25,14.20
2015,06,20,09,26,14.20
2015,06,20,09,27,14.20
2015,06,20,09,28,14.20
2015,06,20,09,29,14.10
2015,06,20,09,30,14.10
2015,06,20,09,31,14.10
2015,06,20,09,32,14.10
2015,06,20,09,33,14.10
2015,06,20,09,34,14.20
2015,06,20,09,35,14.20
2015,06,20,09,36,14.20
2015,06,20,09,37,14.30
2015,06,20,09,38,14.30
2015,06,20,09,39,14.30
2015,06,20,09,40,14.40
2015,06,20,09,41,14.40
2015,06,20,09,42,14.40
2015,06,20,09,43,14.40
2015,06,20,09,44,14.40
2015,06,20,09,45,14.50
2015,06,20,09,46,14.50
2015,06,20,09,47,14.50
2015,06,20,09,48,14.50
2015,06,20,09,49,14.50
2015,06,20,09,50,14.60
2015,06,20,09,51,14.60
2015,06,20,09,52,14.60
2015,06,20,09,53,14.60
2015,06,20,09,54,14.60
2015,06,20,09,55,14.70
2015,06,20,09,56,14.80
2015,06,20,09,57,14.80
2015,06,20,09,58,14.80
2015,06,20,09,59,14.80
2015,06,20,10,00,14.90
2015,06,20,10,01,14.90
2015,06,20,10,02,15.00
2015,06,20,10,03,15.10
2015,06,20,10,04,15.10
2015,06,20,10,05,15.20
2015,06,20,10,06,15.30
2015,06,20,10,07,15.40
2015,06,20,10,08,15.60
2015,06,20,10,09,15.70
2015,06,20,10,10,15.80
2015,06,20,10,11,15.80
2015,06,20,10,12,15.80
2015,06,20,10,13,15.80
2015,06,20,10,14,15.80
2015,06,20,10,15,15.80
2015,06,20,10,16,15.80
2015,06,20,10,17,15.80
2015,06,20,10,18,15.80
2015,06,20,10,19,15.80
2015,06,20,10,20,15.90
2015,06,20,10,21,15.90
2015,06,20,10,22,16.00
2015,06,20,10,23,16.10
2015,06,20,10,24,16.10
2015,06,20,10,25,16.20
2015,06,20,10,26,16.20
2015,06,20,10,27,16.30
2015,06,20,10,28,16.30
2015,06,20,10,29,16.30
2015,06,20,10,30,16.30
2015,06,20,10,31,16.30
2015,06,20,10,32,16.20
2015,06,20,10,33,16.20
2015,06,20,10,34,16.20
2015,06,20,10,35,16.30
2015,06,20,10,36,16.30
2015,06,20,10,37,16.30
2015,06,20,10,38,16.30
2015,06,20,10,39,16.40
2015,06,20,10,40,16.40
2015,06,20,10,41,16.40
2015,06,20,10,42,16.40
2015,06,20,10,43,16.40
2015,06,20,10,44,16.50
2015,06,20,10,45,16.50
2015,06,20,10,46,16.60
2015,06,20,10,47,16.70
2015,06,20,10,48,16.70
2015,06,20,10,49,16.70
2015,06,20,10,50,16.70
2015,06,20,10,51,16.70
2015,06,20,10,52,16.70
2015,06,20,10,53,16.70
2015,06,20,10,54,16.70
2015,06,20,10,55,16.80
2015,06,20,10,56,16.80
2015,06,20,10,57,16.80
2015,06,20,10,58,16.80
2015,06,20,10,59,16.90
2015,06,20,11,00,16.90
2015,06,20,11,01,16.90
2015,06,20,11,02,17.00
2015,06,20,11,03,16.90
2015,06,20,11,04,16.90
2015,06,20,11,05,16.80
2015,06,20,11,06,16.80
2015,06,20,11,07,16.70
2015,06,20,11,08,16.70
2015,06,20,11,09,16.70
2015,06,20,11,10,16.70
2015,06,20,11,11,16.70
2015,06,20,11,12,16.70
2015,06,20,11,13,16.60
2015,06,20,11,14,16.60
2015,06,20,11,15,16.50
2015,06,20,11,16,16.50
2015,06,20,11,17,16.40
2015,06,20,11,18,16.40
2015,06,20,11,19,16.40
2015,06,20,11,20,16.30
2015,06,20,11,21,16.30
2015,06,20,11,22,16.30
2015,06,20,11,23,16.30
2015,06,20,11,24,16.20
2015,06,20,11,25,16.20
2015,06,20,11,26,16.20
2015,06,20,11,27,16.20
2015,06,20,11,28,16.20
2015,06,20,11,29,16.20
2015,06,20,11,30,16.20
2015,06,20,11,31,16.20
2015,06,20,11,32,16.10
2015,06,20,11,33,16.10
2015,06,20,11,34,16.00
2015,06,20,11,35,16.00
2015,06,20,11,36,16.00
2015,06,20,11,37,16.00
2015,06,20,11,38,16.10
2015,06,20,11,39,16.10
2015,06,20,11,40,16.10
2015,06,20,11,41,16.10
2015,06,20,11,42,16.10
2015,06,20,11,43,16.00
2015,06,20,11,44,15.90
2015,06,20,11,45,15.90
2015,06,20,11,46,15.90
2015,06,20,11,47,15.90
2015,06,20,11,48,15.90
2015,06,20,11,49,15.90
2015,06,20,11,50,15.90
2015,06,20,11,51,15.80
2015,06,20,11,52,15.80
2015,06,20,11,53,15.80
2015,06,20,11,54,15.70
2015,06,20,11,55,15.70
2015,06,20,11,56,15.70
2015,06,20,11,57,15.70
2015,06,20,11,58,15.70
2015,06,20,11,59,15.70
2015,06,20,12,00,15.70
2015,06,20,12,01,15.70
2015,06,20,12,02,15.70
2015,06,20,12,03,15.70
2015,06,20,12,04,15.70
2015,06,20,12,05,15.80
2015,06,20,12,06,15.80
2015,06,20,12,07,15.80
2015,06,20,12,08,15.80
2015,06,20,12,09,15.80
2015,06,20,12,10,15.80
2015,06,20,12,11,15.80
2015,06,20,12,12,15.80
2015,06,20,12,13,15.90
2015,06,20,12,14,15.90
2015,06,20,12,15,15.90
2015,06,20,12,16,15.90
2015,06,20,12,17,15.90
2015,06,20,12,18,16.00
2015,06,20,12,19,16.00
2015,06,20,12,20,16.00
2015,06,20,12,21,16.00
2015,06,20,12,22,16.00
2015,06,20,12,23,16.00
2015,06,20,12,24,16.00
2015,06,20,12,25,16.00
2015,06,20,12,26,16.10
2015,06,20,12,27,16.10
2015,06,20,12,28,16.20
2015,06,20,12,29,16.30
2015,06,20,12,30,16.30
2015,06,20,12,31,16.30
2015,06,20,12,32,16.30
2015,06,20,12,33,16.40
2015,06,20,12,34,16.50
2015,06,20,12,35,16.60
2015,06,20,12,36,16.70
2015,06,20,12,37,16.80
2015,06,20,12,38,16.90
2015,06,20,12,39,17.10
2015,06,20,12,40,17.20
2015,06,20,12,41,17.20
2015,06,20,12,42,17.30
2015,06,20,12,43,17.30
2015,06,20,12,44,17.30
2015,06,20,12,45,17.30
2015,06,20,12,46,17.30
2015,06,20,12,47,17.50
2015,06,20,12,48,17.60
2015,06,20,12,49,17.60
2015,06,20,12,50,17.70
2015,06,20,12,51,17.80
2015,06,20,12,52,17.80
2015,06,20,12,53,17.80
2015,06,20,12,54,17.80
2015,06,20,12,55,17.70
2015,06,20,12,56,17.70
2015,06,20,12,57,17.60
2015,06,20,12,58,17.50
2015,06,20,12,59,17.50
2015,06,20,13,00,17.50
2015,06,20,13,01,17.60
2015,06,20,13,02,17.70
2015,06,20,13,03,17.70
2015,06,20,13,04,17.60
2015,06,20,13,05,17.60
2015,06,20,13,06,17.60
2015,06,20,13,07,17.70
2015,06,20,13,08,17.70
2015,06,20,13,09,17.80
2015,06,20,13,10,17.80
2015,06,20,13,11,17.90
2015,06,20,13,12,18.00
2015,06,20,13,13,18.10
2015,06,20,13,14,18.10
2015,06,20,13,15,18.10
2015,06,20,13,16,18.10
2015,06,20,13,17,18.10
2015,06,20,13,18,18.20
2015,06,20,13,19,18.20
2015,06,20,13,20,18.20
2015,06,20,13,21,18.30
2015,06,20,13,22,18.30
2015,06,20,13,23,18.30
2015,06,20,13,24,18.30
2015,06,20,13,25,18.30
2015,06,20,13,26,18.40
2015,06,20,13,27,18.30
2015,06,20,13,28,18.30
2015,06,20,13,29,18.40
2015,06,20,13,30,18.30
2015,06,20,13,31,18.30
2015,06,20,13,32,18.40
2015,06,20,13,33,18.40
2015,06,20,13,34,18.50
2015,06,20,13,35,18.60
2015,06,20,13,36,18.70
2015,06,20,13,37,18.80
2015,06,20,13,38,18.80
2015,06,20,13,39,19.00
2015,06,20,13,40,19.10
2015,06,20,13,41,19.10
2015,06,20,13,42,19.10
2015,06,20,13,43,19.10
2015,06,20,13,44,19.10
2015,06,20,13,45,19.00
2015,06,20,13,46,19.00
2015,06,20,13,47,19.00
2015,06,20,13,48,19.10
2015,06,20,13,49,19.20
2015,06,20,13,50,19.30
2015,06,20,13,51,19.40
2015,06,20,13,52,19.40
2015,06,20,13,53,19.40
2015,06,20,13,54,19.40
2015,06,20,13,55,19.40
2015,06,20,13,56,19.50
2015,06,20,13,57,19.60
2015,06,20,13,58,19.70
2015,06,20,13,59,19.80
2015,06,20,14,00,19.80
2015,06,20,14,01,19.80
2015,06,20,14,02,19.80
2015,06,20,14,03,19.80
2015,06,20,14,04,19.80
2015,06,20,14,05,19.80
2015,06,20,14,06,19.70
2015,06,20,14,07,19.70
2015,06,20,14,08,19.70
2015,06,20,14,09,19.80
2015,06,20,14,10,19.80
2015,06,20,14,11,19.80
2015,06,20,14,12,19.80
2015,06,20,14,13,19.80
2015,06,20,14,14,19.80
2015,06,20,14,15,19.90
2015,06,20,14,16,19.90
2015,06,20,14,17,19.90
2015,06,20,14,18,19.80
2015,06,20,14,19,19.80
2015,06,20,14,20,19.80
2015,06,20,14,21,19.90
2015,06,20,14,22,20.00
2015,06,20,14,23,20.10
2015,06,20,14,24,20.20
2015,06,20,14,25,20.20
2015,06,20,14,26,20.30
2015,06,20,14,27,20.40
2015,06,20,14,28,20.60
2015,06,20,14,29,20.70
2015,06,20,14,30,20.70
2015,06,20,14,31,20.60
2015,06,20,14,32,20.60
2015,06,20,14,33,20.60
2015,06,20,14,34,20.60
2015,06,20,14,35,20.60
2015,06,20,14,36,20.60
2015,06,20,14,37,20.50
2015,06,20,14,38,20.50
2015,06,20,14,39,20.50
2015,06,20,14,40,20.40
2015,06,20,14,41,20.40
2015,06,20,14,42,20.30
2015,06,20,14,43,20.30
2015,06,20,14,44,20.20
2015,06,20,14,45,20.20
2015,06,20,14,46,20.20
2015,06,20,14,47,20.20
2015,06,20,14,48,20.20
2015,06,20,14,49,20.20
2015,06,20,14,50,20.20
2015,06,20,14,51,20.20
2015,06,20,14,52,20.30
2015,06,20,14,53,20.30
2015,06,20,14,54,20.40
2015,06,20,14,55,20.50
2015,06,20,14,56,20.60
2015,06,20,14,57,20.60
2015,06,20,14,58,20.50
2015,06,20,14,59,20.30
2015,06,20,15,00,20.20
2015,06,20,15,01,20.20
2015,06,20,15,02,20.20
2015,06,20,15,03,20.20
2015,06,20,15,04,20.20
2015,06,20,15,05,20.30
2015,06,20,15,06,20.30
2015,06,20,15,07,20.20
2015,06,20,15,08,20.20
2015,06,20,15,09,20.20
2015,06,20,15,10,20.30
2015,06,20,15,11,20.30
2015,06,20,15,12,20.30
2015,06,20,15,13,20.20
2015,06,20,15,14,20.20
2015,06,20,15,15,20.20
2015,06,20,15,16,20.20
2015,06,20,15,17,20.30
2015,06,20,15,18,20.30
2015,06,20,15,19,20.30
2015,06,20,15,20,20.30
2015,06,20,15,21,20.30
2015,06,20,15,22,20.30
2015,06,20,15,23,20.30
2015,06,20,15,24,20.20
2015,06,20,15,25,20.20
2015,06,20,15,26,20.20
2015,06,20,15,27,20.30
2015,06,20,15,28,20.30
2015,06,20,15,29,20.30
2015,06,20,15,30,20.40
2015,06,20,15,31,20.50
2015,06,20,15,32,20.60
2015,06,20,15,33,20.60
2015,06,20,15,34,20.60
2015,06,20,15,35,20.60
2015,06,20,15,36,20.60
2015,06,20,15,37,20.60
2015,06,20,15,38,20.60
2015,06,20,15,39,20.60
2015,06,20,15,40,20.50
2015,06,20,15,41,20.40
2015,06,20,15,42,20.30
2015,06,20,15,43,20.40
2015,06,20,15,44,20.40
2015,06,20,15,45,20.50
2015,06,20,15,46,20.60
2015,06,20,15,47,20.60
2015,06,20,15,48,20.60
2015,06,20,15,49,20.70
2015,06,20,15,50,20.60
2015,06,20,15,51,20.60
2015,06,20,15,52,20.70
2015,06,20,15,53,20.60
2015,06,20,15,54,20.50
2015,06,20,15,55,20.50
2015,06,20,15,56,20.60
2015,06,20,15,57,20.70
2015,06,20,15,58,20.70
2015,06,20,15,59,20.60
2015,06,20,16,00,20.60
2015,06,20,16,01,20.60
2015,06,20,16,02,20.60
2015,06,20,16,03,20.60
2015,06,20,16,04,20.70
2015,06,20,16,05,20.80
2015,06,20,16,06,20.80
2015,06,20,16,07,20.80
2015,06,20,16,08,20.90
2015,06,20,16,09,21.00
2015,06,20,16,10,21.10
2015,06,20,16,11,21.20
2015,06,20,16,12,21.30
2015,06,20,16,13,21.30
2015,06,20,16,14,21.30
2015,06,20,16,15,21.40
2015,06,20,16,16,21.40
2015,06,20,16,17,21.40
2015,06,20,16,18,21.30
2015,06,20,16,19,21.20
2015,06,20,16,20,21.20
2015,06,20,16,21,21.20
2015,06,20,16,22,21.20
2015,06,20,16,23,21.20
2015,06,20,16,24,21.10
2015,06,20,16,25,21.00
2015,06,20,16,26,20.90
2015,06,20,16,27,20.80
2015,06,20,16,28,20.60
2015,06,20,16,29,20.60
2015,06,20,16,30,20.60
2015,06,20,16,31,20.70
2015,06,20,16,32,20.80
2015,06,20,16,33,20.80
2015,06,20,16,34,20.90
2015,06,20,16,35,21.00
2015,06,20,16,36,21.10
2015,06,20,16,37,21.10
2015,06,20,16,38,21.20
2015,06,20,16,39,21.30
2015,06,20,16,40,21.30
2015,06,20,16,41,21.30
2015,06,20,16,42,21.30
2015,06,20,16,43,21.30
2015,06,20,16,44,21.20
2015,06,20,16,45,21.10
2015,06,20,16,46,21.10
2015,06,20,16,47,21.10
2015,06,20,16,48,21.00
2015,06,20,16,49,21.00
2015,06,20,16,50,21.00
2015,06,20,16,51,21.00
2015,06,20,16,52,21.00
2015,06,20,16,53,21.00
2015,06,20,16,54,21.00
2015,06,20,16,55,21.10
2015,06,20,16,56,21.10
2015,06,20,16,57,21.20
2015,06,20,16,58,21.20
2015,06,20,16,59,21.20
2015,06,20,17,00,21.20
2015,06,20,17,01,21.20
2015,06,20,17,02,21.20
2015,06,20,17,03,21.10
2015,06,20,17,04,21.10
2015,06,20,17,05,21.00
2015,06,20,17,06,20.90
2015,06,20,17,07,20.80
2015,06,20,17,08,20.80
2015,06,20,17,09,20.80
2015,06,20,17,10,20.80
2015,06,20,17,11,20.90
2015,06,20,17,12,20.90
2015,06,20,17,13,21.00
2015,06,20,17,14,21.10
2015,06,20,17,15,21.10
2015,06,20,17,16,21.10
2015,06,20,17,17,21.20
2015,06,20,17,18,21.20
2015,06,20,17,19,21.30